Regional Weather Roundup
Issued by NWS

Home | Current Version | Previous Version | Text Only | Print | Product List | Glossary On
Versions: 1 2 3 4 5 6 7 8 9 10 11 12 13 14 15 16 17 18 19 20 21 22 23 24 25 26 27 28 29 30 31 32 33 34 35 36 37 38 39 40 41 42 43 44 45 46 47 48 49 50
000
ASHW40 PHFO 291743
RWRHI

WEATHER ROUNDUP FOR HAWAII
NATIONAL WEATHER SERVICE HONOLULU HI
700 AM HST SAT AUG 29 2015

THIS IS AN AUTOMATED REPORT THAT HAS NOT BEEN QUALITY CONTROLLED.

NOTE..."FAIR" INDICATES FEW OR NO CLOUDS BELOW 12,000 FEET WITH NO
SIGNIFICANT WEATHER AND/OR OBSTRUCTIONS TO VISIBILITY.

* - THESE SITES REPORT LIMITED FIELDS

HIZ001>004-291800-
KAUAI-NIIHAU-

CITY           SKY/WX    TMP DP  RH WIND       PRES   REMARKS
LIHUE APT      LGT RAIN  77  73  88 NW5       29.90R
PORT ALLEN*    NOT AVBL
POIPU*           N/A     75 N/A N/A N2          N/A
PRINCEVILLE*     N/A     73 N/A N/A MISG        N/A
KOKOLE POINT*  NOT AVBL
MOLOAA DAIRY*    N/A     77  75  94 CALM        N/A
WAIMEA HTS*      N/A     82  73  74 CALM        N/A
PUU OPAE*        N/A     75  68  78 E2          N/A
PUU LUA*       NOT AVBL
MAKAHA RIDGE*    N/A     73  68  83 CALM        N/A
$$

HIZ005>011-291800-
OAHU-

CITY           SKY/WX    TMP DP  RH WIND       PRES   REMARKS
HONOLULU       PTCLDY    79  72  79 CALM      29.87R
KALAELOA       CLEAR     76  71  85 CALM      29.89R
KANEOHE MCB    MOCLDY    81  73  76 VRB5      29.86R
WHEELER FIELD  FAIR      72  70  94 NW1       29.89R
BELLOWS*         N/A    N/A N/A N/A NE10        N/A
KAHUKU*          N/A    N/A N/A N/A E5          N/A
WHEELER*       NOT AVBL
WAIANAE HARBOR NOT AVBL
DILLINGHAM*      N/A     72  70  94 MISG        N/A
KAHUKU TRN*      N/A     75  70  83 E5G12       N/A
KAWAILOA*        N/A     73  64  73 S2          N/A
KII*             N/A     79  73  83 SE6         N/A
MAKUA RANGE*     N/A     73  68  83 E6          N/A
OAHU FOREST NW   N/A     70  70 100 CALM        N/A
SCHOFIELD BRK*   N/A     70  68  94 MISG        N/A
SCHOFIELD S*   NOT AVBL
WAIANAE VLY*     N/A     88  81  79 MISG        N/A  HX 105
KUAOKALA*        N/A     81  72  74 SE3G9       N/A
HONOULIUULI*   NOT AVBL
MOKUOLOE IS*     N/A    N/A N/A N/A MISG        N/A
PALEHUA*         N/A     72  66  83 NE7         N/A
WAIAWA PHB*    NOT AVBL
$$

HIZ012>013-291800-
MOLOKAI-

CITY           SKY/WX    TMP DP  RH WIND       PRES   REMARKS
MOLOKAI AIRPT  MOSUNNY   79  73  82 N3        29.89R
KALAUPAPA      NOT AVBL
MAKAPULAPAI*     N/A     82  73  74 E15G21      N/A
MOLOKAI 1*       N/A     77  73  88 CALM        N/A
PUU ALII*        N/A     64  64 100 SE2G9       N/A
$$

HIZ016-291800-
KAHOOLAWE-

CITY           SKY/WX    TMP DP  RH WIND       PRES   REMARKS
KAHOOLAWE*       N/A     73 N/A N/A E9          N/A
HAKIOAWA*        N/A     76  72  87 MISG      30.32S
HONOKANAIA*      N/A     78  74  88 VRB6G15   29.81
KANELOA*         N/A     75  72  88 NE14G21   29.94S
KEALIALALO*      N/A     75  70  83 E8G15     29.89R
LUA MAKIKA*    NOT AVBL
$$

HIZ014>015-291800-
LANAI-

CITY           SKY/WX    TMP DP  RH WIND       PRES   REMARKS
LANAI CITY     FAIR      72  70  93 NE5       29.94S
LANAI 1*         N/A     73  70  88 NE12        N/A
$$

HIZ017>028-291800-
MAUI-

CITY           SKY/WX    TMP DP  RH WIND       PRES   REMARKS
KAHULUI        MOSUNNY   77  69  76 NE3       29.88R
KAPALUA-W MAUI PTSUNNY   79  70  73 E6        29.88S
HANA AIRPORT   CLOUDY    79  77  94 CALM      29.94R
HANA*            N/A     77 N/A N/A S2          N/A
HALEAKALA SUMM   N/A     54  39  58 NW5         N/A
MAALAEA BAY*   NOT AVBL
HALEAKALA*     NOT AVBL
KAUPO GAP*       N/A     61  54  77 N5G10       N/A
KULA 1*          N/A     57  47  68 E7          N/A
$$

HIZ023>026-291800-
BIG ISLAND OF HAWAII COAST AND LOWER SLOPES-

CITY           SKY/WX    TMP DP  RH WIND       PRES   REMARKS
KAILUA KONA    SUNNY     81  66  60 N10       29.84R
HILO           MOSUNNY   73  67  81 SW6       29.88R
HONOKAA*       NOT AVBL
KAWAIHAE MWT*    N/A     81 N/A N/A E3          N/A
KAWAIHAE*        N/A     84 N/A N/A NE2         N/A
SOUTH POINT*     N/A     70 N/A N/A NE1         N/A
UPOLU AIRPORT*   N/A    N/A N/A N/A E10         N/A
KAMUELA*       NOT AVBL
HAKALAU*         N/A     55  43  63 W3          N/A
KALOKO-HONOKO*   N/A     79  72  78 SE3       29.84R
PALI 2*          N/A     70  57  64 N10G16      N/A
KEALAKOMO*       N/A     73  57  56 NE13G25     N/A
KAUPULEHU*       N/A     81  63  54 W6G12       N/A
KAPAPALA*        N/A     63  62  97 NW6         N/A
LOWER KAHUKU*    N/A     57 N/A N/A N3          N/A
PUHE CS*         N/A     79  66  65 E3G9        N/A
PUHO CS*         N/A     75  66  74 E3          N/A
PTA KEAMUKU*     N/A     64  57  77 CALM        N/A
WAIKOLOA*        N/A     79  63  57 E10G20      N/A
$$

HIZ027>028-291800-
BIG ISLAND OF HAWAII INTERIOR AND SUMMMITS-

CITY           SKY/WX    TMP DP  RH WIND       PRES   REMARKS
BRADSHAW FIELD SUNNY     57  48  72 SE2       30.24R
MK VISITOR CEN   N/A     59  36  41 E1          N/A
MAUNA KEA*       N/A     41  10  28 VRB5        N/A
MAUNA LOA*       N/A    N/A N/A N/A MISG        N/A
MAUNA LOA 1*   NOT AVBL
PTA KIPUKA*      N/A     57  55  94 E3          N/A
PTA RANGE 17*    N/A     55  48  76 E3          N/A
PTA WEST*        N/A     59  57  94 SE8         N/A
NENE CABIN*      N/A     52  32  46 N5          N/A
AHUMOA*          N/A     67  47  48 E5G10       N/A
PTA PORTABLE*  NOT AVBL
PUU MALI*        N/A     64  41  42 E5          N/A
$$

HIC003-291800-
NORTHWEST ISLANDS-

CITY           SKY/WX    TMP DP  RH WIND       PRES   REMARKS
MIDWAY ISLAND  CLEAR     79  73  83 CALM      29.86F
MIDWAY NOS*    NOT AVBL
FRENCH FRIGATE NOT AVBL
$$

PHZ110>124-180-291800-
BUOY REPORTS

STATION/POSITION TIME  TEMP    WIND        PRES    WAVE   SWELL
                       AIR SEA DIR/SP/G            HT/PER HT/DIR
                 (UTC) (F)     (DEG/KT/KT) (MB)    (FT/S) (FT/D)
BUOY 51001       1659   80 83   70/ 16/ 19 1012.9
BUOY 51101       1700   79 83  140/  8/ 12 1012.0R   7/15   7/280
BUOY 51100       NOT AVBL
BUOY 51002       1700   82 83   80/ 14/ 17 1010.1R   6/15   5/230
BUOY 51003       1700   83 84   80/ 10/ 12 1010.7R   6/15   5/260
BUOY 51004       1614   79 83   30/ 12/ 16 1009.1R   6/14   5/270
BARBERS PT BUOY  NOT AVBL
WAIMEA BAY BUOY  1700      82                N/A     4/17   3/300
KAILUA BAY BUOY  1700      83                N/A     5/ 8   2/140
LANAI BUOY       NOT AVBL
BARBERS PT 2     1700      83                N/A     4/15   3/230
PAUWELA MAUI     1700      82                N/A     4/17   3/320
HILO             NOT AVBL
KANEOHE BAY BUOY 1700      83                N/A     4/ 8
HANALEI KAUAI    1700      83                N/A     5/15   3/290
KAHULUI HARBOR   NOT AVBL
HONOLULU HARBOR  NOT AVBL
KILO NALU        NOT AVBL
HILO HARBOR      NOT AVBL
MOKUOLOE         NOT AVBL
NAWILIWILI       NOT AVBL
WHOTS BUOY       NOT AVBL
BUOY 51028       NOT AVBL
$$

......................KEY........................................
  SKY/WX - SKY CONDITIONS/PRESENT WEATHER
  TMP    - TEMPERATURE IN FAHRENHEIT
  DWPT   - DEWPOINT IN FAHRENHEIT
  RH     - RELATIVE HUMIDITY IN PERCENT
  WIND   - DIRECTION AND SPEED /MPH FOR ISLANDS...KTS FOR BUOYS/
  PRES   - MEAN SEA LEVEL PRESSURE IN INCHES OF HG
  VSB    - VISIBILITY IN MILES
  HX     - HEAT INDEX
  WCI    - WIND CHILL INDEX
  VRB    - VARIABLE WIND DIRECTION
  N/A    - NOT AVAILABLE



USA.gov is the U.S. government's official web portal to all federal, state and local government web resources and services.